Weather in Bogovarovo

Russia / Kostroma Oblast     58°58′34″N   47°01′15″E
temp.,
°C
wind,
m/s
gust,
m/s
humid.,
%
clouds,
%
prec.,
mm/h
press.,
hPa
HPBL,
m
25 january, tue
tue2500:00−13sw4149565 0.0 1029326
03:00−13ssw4159490 0.0 1028353
06:00−13ssw41594100 0.0 1026351
09:00−14ssw4149676 0.0 1024318
12:00−10ssw4149287 0.0 1021397
15:00−9ssw4139380 0.0 1020481
18:00−11ssw4139352 0.0 1019347
21:00−12ssw4129470 0.0 1018317
26 january, wed
wed2600:00−13s31097100 0.0 1017286
03:00−12s3896100 0.1 1017274
06:00−13s2797100 0.1 1016235
09:00−13s269799 0.1 1016213
12:00−10ssw2492100 0.1 1016320
15:00−10s139690 0.4 1016283
18:00−13s119876 0.2 101617
21:00−17s1110098 0.2 10179
27 january, thu
thu2700:00−17s0110081 0.1 10169
03:00−14s0098100 0.3 101610
06:00−16ssw119987 0.1 10169
09:00−15s129978 0.1 101554
12:00−12ssw2394100 0.1 1015232
15:00−11s259580 0.1 1014289
18:00−15sse269993 0.1 101589
21:00−16s2799100 0.1 1014143
28 january, fri
fri2800:00−17s279987 0.1 1014143
03:00−15s3996100 0.1 1014271
06:00−16sse3997100 0.1 1013225
09:00−15sse31097100 0.1 1013275
12:00−12sse41093100 0.1 1013380
15:00−10sse41194100 0.1 1012487
18:00−10sse41194100 0.1 1012486
21:00−9sse41194100 0.1 1011496
29 january, sat
sat2900:00−9sse41194100 0.1 1011427
03:00−10sse31095100 0.1 1011360
06:00−11se31095100 0.0 1010317
09:00−11se31093100 0.1 1010350
12:00−9se3993100 0.0 1008383
15:00−8se3995100 0.2 1007465
18:00−8se3995100 0.4 1005464
21:00−9se279686 0.7 1004268